Twin Falls, ID

5:29 AM MDT on September 20, 2017 (GMT -0600)
Joslin Field-Magic Valley Regional

Weather History for KTWF - July, 2013

Change the Weather History Date:

Monday, July 22, 2013

  Actual Average Record
Temperature  
Mean Temperature 83 °F -  
Max Temperature 100 °F 91 °F 104 °F (2003)
Min Temperature 65 °F 59 °F 45 °F (1987)
Degree Days  
Heating Degree Days 0 0  
Month to date heating degree days 0 3  
Since 1 June heating degree days 55 90  
Since 1 July heating degree days 0 3  
Cooling Degree Days 18 10  
Month to date cooling degree days 322 186  
Year to date cooling degree days 520 295  
Since 1 June cooling degree days 495 273  
Growing Degree Days 32 (Base 50)    
Moisture  
Dew Point 26 °F    
Average Humidity 15    
Maximum Humidity 22    
Minimum Humidity 8    
Precipitation  
Precipitation 0.00 in 0.01 in 0.48 in (2008)
Month to date precipitation 0.16 0.22  
Year to date precipitation 3.19 6.48  
Sea Level Pressure  
Sea Level Pressure 29.79 in    
Wind  
Wind Speed 11 mph (WSW)    
Max Wind Speed 17 mph    
Max Gust Speed 21 mph    
Visibility 10 miles    
Events      
T = Trace of Precipitation, MM = Missing Value Source: NWS Daily Summary

Daily Weather History Graph

Daily Weather History Graph

Search for Another Location

Airport or City:

Trip Planner

Search our weather history database for the weather conditions in past years. The results will help you decide how hot, cold, wet, or windy it might be!

Date:

Astronomy

Jul. 22, 2013 Rise Set
Actual Time 6:20 AM MDT 9:07 PM MDT
Civil Twilight 5:47 AM MDT 9:40 PM MDT
Nautical Twilight 5:06 AM MDT 10:21 PM MDT
Astronomical Twilight 4:18 AM MDT 11:09 PM MDT
Moon 8:54 PM MDT (7/22) 6:23 AM MDT (7/22)
Length of Visible Light 15h 52m
Length of Day
14h 47m
Full, 100% of the Moon is Illuminated
Jul 22
Full
Jul 22
Full
Jul 29
Last Quarter
Aug 6
New
Aug 14
First Quarter

Hourly Weather History & Observations

Time (MDT) Temp. Dew Point Humidity Pressure Visibility Wind Dir Wind Speed Gust Speed Precip Events Conditions
12:53 AM 72.0 °F 24.1 °F 17% 29.73 in 10.0 mi South 12.7 mph - N/A   Clear
1:53 AM 70.0 °F 24.1 °F 18% 29.73 in 10.0 mi South 11.5 mph - N/A   Clear
2:53 AM 70.0 °F 21.9 °F 16% 29.73 in 10.0 mi South 11.5 mph - N/A   Clear
3:53 AM 68.0 °F 21.9 °F 17% 29.73 in 10.0 mi South 11.5 mph - N/A   Clear
4:53 AM 75.9 °F 19.9 °F 12% 29.74 in 10.0 mi SSW 9.2 mph - N/A   Clear
5:53 AM 72.0 °F 21.0 °F 15% 29.76 in 10.0 mi SSW 10.4 mph - N/A   Clear
6:53 AM 66.0 °F 26.1 °F 22% 29.78 in 10.0 mi South 11.5 mph - N/A   Clear
7:53 AM 73.0 °F 28.9 °F 20% 29.80 in 10.0 mi South 10.4 mph - N/A   Clear
8:53 AM 84.0 °F 21.9 °F 10% 29.82 in 10.0 mi West 9.2 mph - N/A   Clear
9:53 AM 84.0 °F 30.0 °F 14% 29.84 in 10.0 mi WNW 9.2 mph - N/A   Clear
10:53 AM 87.1 °F 30.9 °F 13% 29.85 in 10.0 mi WNW 8.1 mph - N/A   Clear
11:53 AM 89.1 °F 36.0 °F 15% 29.84 in 10.0 mi WNW 8.1 mph - N/A   Clear
12:53 PM 93.0 °F 28.9 °F 10% 29.83 in 10.0 mi WNW 9.2 mph - N/A   Clear
1:53 PM 93.9 °F 30.9 °F 11% 29.82 in 10.0 mi WNW 10.4 mph - N/A   Clear
2:53 PM 96.1 °F 28.0 °F 9% 29.81 in 10.0 mi NW 9.2 mph - N/A   Clear
3:53 PM 98.1 °F 28.0 °F 8% 29.81 in 10.0 mi NW 11.5 mph - N/A   Clear
4:53 PM 99.0 °F 27.0 °F 8% 29.77 in 10.0 mi WNW 15.0 mph - N/A   Clear
5:53 PM 98.1 °F 28.9 °F 9% 29.77 in 10.0 mi West 13.8 mph - N/A   Clear
6:53 PM 95.0 °F 33.1 °F 11% 29.77 in 10.0 mi WNW 9.2 mph - N/A   Clear
7:53 PM 91.9 °F 28.9 °F 11% 29.77 in 10.0 mi West 6.9 mph - N/A   Clear
8:53 PM 84.0 °F 25.0 °F 12% 29.78 in 10.0 mi SW 6.9 mph - N/A   Clear
9:53 PM 80.1 °F 18.0 °F 10% 29.80 in 10.0 mi SSW 10.4 mph - N/A   Clear
10:53 PM 75.9 °F 21.0 °F 13% 29.82 in 10.0 mi South 17.3 mph - N/A   Clear
11:53 PM 71.1 °F 21.0 °F 15% 29.84 in 10.0 mi South 11.5 mph - N/A   Clear